Regional Weather Roundup
Issued by NWS

Home | Current Version | Previous Version | Text Only | Print | Product List | Glossary Off
Versions: 1 2 3 4 5 6 7 8 9 10 11 12 13 14 15 16 17 18 19 20 21 22 23 24 25 26 27

000
ASUS45 KBOU 240207
RWRCO

WEATHER ROUNDUP FOR COLORADO
NATIONAL WEATHER SERVICE DENVER/BOULDER CO
800 PM MDT THU OCT 23 2014

NOTE: "FAIR" INDICATES FEW OR NO CLOUDS BELOW 12000 FEET WITH NO
SIGNIFICANT WEATHER AND/OR OBSTRUCTIONS TO VISIBILITY.

COZ001>005-013-030-031-240300-
...NORTHWEST COLORADO...

CITY           SKY/WX    TMP DP  RH WIND       PRES   REMARKS
CRAIG            N/A     56  32  40 W10       30.21R
HAYDEN         PTCLDY    54  30  40 CALM      30.23R
MEEKER         PTCLDY    56  32  40 CALM      30.24R
MOUNT WERNER   NOT AVBL
STEAMBOAT SPGS PTCLDY    51  32  46 CALM      30.26R
WALDEN         CLOUDY    50  27  40 S8        30.29S
$$

COZ006>008-011-240300-
...WEST CENTRAL VALLEYS...

CITY           SKY/WX    TMP DP  RH WIND       PRES   REMARKS
GRAND JUNCTION PTCLDY    51  37  58 CALM      30.19R
MONTROSE       CLEAR     53  38  56 E6        30.26R
EAGLE          NOT AVBL
RIFLE          PTCLDY    51  41  68 SE5       30.22R
DELTA          CLEAR     60  36  40 CALM      30.21S
NUCLA          CLEAR     55  34  44 E10       30.29R
$$

COZ017>023-064>068-240300-
...SOUTHWEST COLORADO...

CITY           SKY/WX    TMP DP  RH WIND       PRES   REMARKS
DURANGO        CLEAR     52  37  56 CALM      30.30S
CORTEZ         CLEAR     48  34  58 NE7       30.28R
PAGOSA SPRINGS CLEAR     48  37  65 CALM      30.38R
TELLURIDE      CLEAR     48  32  54 SE7       30.46R
WOLF CREEK PAS CLEAR     36  32  87 SW15        N/A
$$

COZ009-010-012-014-032>034-037-058>063-240300-
...CENTRAL COLORADO...

CITY           SKY/WX    TMP DP  RH WIND       PRES   REMARKS
ASPEN          CLEAR     48  32  53 SW7       30.34R
BUENA VISTA    CLEAR     47  29  49 W10       30.34R
COPPER MTN     PTCLDY    41  19  42 SW12G20   30.55R
BERTHOUD PASS  FAIR      34  32  93 W30G37    30.52S WCI  20
COTTONWOOD PAS CLEAR     52  23  32 W15G22    30.44R
GUNNISON       CLEAR     46  27  46 CALM      30.38R
KREMMLING      CLEAR     48  28  46 CALM        N/A
LEADVILLE      CLEAR     39  25  57 NE7       30.43S
MONARCH PASS   CLEAR     37  27  65 SW20      30.67R
SALIDA         CLEAR     54  31  41 SW9       30.39R
SUNLIGHT       PTCLDY    41  32  70 CALM      30.50S
WILKERSON PASS NOT AVBL
$$

COZ069>075-240300-
...SAN LUIS VALLEY/SANGRE DE CRISTO MOUNTAINS...

CITY           SKY/WX    TMP DP  RH WIND       PRES   REMARKS
ALAMOSA        CLEAR     51  30  44 NE5       30.32R
LA VETA PASS   CLEAR     45  27  49 SW7       30.46R
SAGUACHE       CLEAR     45  28  53 N7        30.36R
$$

COZ035-036-038>040-240300-
...NORTHERN COLORADO FRONT RANGE...

CITY           SKY/WX    TMP DP  RH WIND       PRES   REMARKS
DENVER INTL AP MOCLDY    54  31  41 S13       30.13R
DMNS CITY PARK   N/A     57  37  46 SE5       30.12F
AURORA         PTCLDY    56  31  37 S12       30.15S
FRONT RANGE AP NOT AVBL
ERIE MUNI ARPT MOCLDY    56  35  44 SW3       30.11S
BOULDER MUN AP MOCLDY    66  30  26 SW6       30.12R
CENTENNIAL     MOCLDY    57  34  41 S7        30.16R
BROOMFIELD     NOT AVBL
FORT COLLINS   MOCLDY    61  34  36 CALM      30.11R
LONGMONT       MOCLDY    57  36  45 CALM      30.12S
$$

COZ041-046-047-076>085-087-088-240300-
...PIKES PEAK/PALMER DIVIDE AND SOUTHERN FOOTHILLS...

CITY           SKY/WX    TMP DP  RH WIND       PRES   REMARKS
COLO. SPRINGS  PTCLDY    58  29  33 S8        30.22R
A. F. ACADEMY  PTCLDY    52  34  50 E3        30.23R
ELLICOTT       NOT AVBL
FALCON         PTCLDY    52  28  40 S6        30.26R
FORT CARSON    PTCLDY    58  29  33 SW7       30.20R
LIMON          CLEAR     54  38  54 S5        30.16R
MONUMENT HILL  PTCLDY    48  28  46 S13       30.23S
TRINIDAD       CLEAR     58  33  39 SE7       30.20R
$$

COZ042>045-048>051-090-091-240300-
...NORTHEAST COLORADO...

CITY           SKY/WX    TMP DP  RH WIND       PRES   REMARKS
GREELEY ARPT   PTCLDY    52  30  43 CALM      30.09S
AKRON          PTCLDY    57  32  38 S7        30.08S
BURLINGTON     PTCLDY    57  42  57 S10       30.10S
WRAY           CLEAR     55  34  44 SW6       30.05S
STERLING       PTCLDY    54  37  54 S3        30.04R
HOLYOKE        CLEAR     55  34  44 SW7       30.04R
FORT MORGAN    PTCLDY    60  28  30 SE5       30.08S
$$

COZ086-089-092>099-240300-
...SOUTHEAST COLORADO...

CITY           SKY/WX    TMP DP  RH WIND       PRES   REMARKS
PUEBLO         CLEAR     56  33  42 CALM      30.13R
LA JUNTA       CLEAR     62  38  40 SE6       30.11R
LAMAR          CLEAR     56  39  53 S9        30.08S
SPRINGFIELD      N/A     55  48  77 SW6       30.14S
$$



USA.gov is the U.S. government's official web portal to all federal, state and local government web resources and services.